Weather History for Siren, WI

Change the Weather History Date:

Thursday, August 15, 2013

  Actual Average Record
Temperature  
Mean Temperature 63 °F -  
Max Temperature 78 °F - - ()
Min Temperature 49 °F - - ()
Degree Days  
Heating Degree Days 2    
Growing Degree Days 13 (Base 50)    
Moisture  
Dew Point 51 °F    
Average Humidity 67    
Maximum Humidity 95    
Minimum Humidity 35    
Precipitation  
Precipitation 0.00 in - - ()
Sea Level Pressure  
Sea Level Pressure 30.11 in    
Wind  
Wind Speed 2 mph (WSW)    
Max Wind Speed 10 mph    
Max Gust Speed -    
Visibility 10 miles    
Events      
T = Trace of Precipitation, MM = Missing Value Source: NWS Daily Summary

Daily Weather History Graph

Daily Weather History Graph

Search for Another Location

Airport:

Trip Planner

Search our weather history database for the weather conditions in past years. The results will help you decide how hot, cold, wet, or windy it might be!

Date:

Astronomy

Aug. 15, 2013 Rise Set
Actual Time 6:09 AM CDT 8:17 PM CDT
Civil Twilight 5:37 AM CDT 8:49 PM CDT
Nautical Twilight 4:56 AM CDT 9:29 PM CDT
Astronomical Twilight 4:12 AM CDT 10:13 PM CDT
Moon 3:40 PM CDT (8/15) 12:14 AM CDT (8/15)
Length of Visible Light 15h 12m
Length of Day
14h 07m
Waxing Gibbous, 64% of the Moon is Illuminated
Aug 15
Waxing Gibbous
Aug 20
Full
Aug 28
Last Quarter
Sep 5
New
Sep 12
First Quarter

Hourly Weather History & Observations

Time (CDT) Temp. Dew Point Humidity Pressure Visibility Wind Dir Wind Speed Gust Speed Precip Events Conditions
12:15 AM 51.1 °F 49.1 °F 93% 30.11 in 10.0 mi Calm Calm - N/A   Clear
12:35 AM 51.1 °F 47.8 °F 89% 30.11 in 10.0 mi Calm Calm - N/A   Clear
12:55 AM 50.9 °F 47.8 °F 89% 30.11 in 10.0 mi Calm Calm - N/A   Clear
1:15 AM 50.5 °F 47.5 °F 89% 30.11 in 10.0 mi Calm Calm - N/A   Scattered Clouds
1:35 AM 51.1 °F 49.6 °F 95% 30.11 in 10.0 mi Calm Calm - N/A   Scattered Clouds
1:55 AM 51.6 °F 49.8 °F 94% 30.10 in 10.0 mi Calm Calm - N/A   Scattered Clouds
2:15 AM 49.8 °F 47.1 °F 90% 30.11 in 10.0 mi Calm Calm - N/A   Scattered Clouds
2:35 AM 50.5 °F 47.1 °F 88% 30.11 in 10.0 mi Calm Calm - N/A   Mostly Cloudy
2:55 AM 51.4 °F 48.0 °F 88% 30.11 in 10.0 mi Calm Calm - N/A   Scattered Clouds
3:15 AM 51.4 °F 48.0 °F 88% 30.10 in 10.0 mi Calm Calm - N/A   Mostly Cloudy
3:35 AM 53.2 °F 49.5 °F 87% 30.11 in 10.0 mi Calm Calm - N/A   Overcast
3:55 AM 54.3 °F 50.9 °F 88% 30.11 in 10.0 mi WSW 3.5 mph - N/A   Mostly Cloudy
4:15 AM 54.5 °F 52.0 °F 91% 30.11 in 10.0 mi SW 4.6 mph - N/A   Mostly Cloudy
4:35 AM 55.2 °F 51.8 °F 88% 30.11 in 10.0 mi WSW 3.5 mph - N/A   Mostly Cloudy
4:55 AM 54.9 °F 51.6 °F 89% 30.11 in 10.0 mi Calm Calm - N/A   Mostly Cloudy
5:15 AM 53.4 °F 50.2 °F 89% 30.11 in 10.0 mi Calm Calm - N/A   Scattered Clouds
5:35 AM 52.2 °F 50.0 °F 92% 30.11 in 10.0 mi Calm Calm - N/A   Scattered Clouds
5:55 AM 50.9 °F 48.4 °F 91% 30.11 in 10.0 mi Calm Calm - N/A   Scattered Clouds
6:15 AM 50.2 °F 47.3 °F 90% 30.12 in 10.0 mi Calm Calm - N/A   Scattered Clouds
6:35 AM 52.0 °F 49.6 °F 92% 30.12 in 10.0 mi Calm Calm - N/A   Scattered Clouds
6:55 AM 52.0 °F 50.0 °F 93% 30.13 in 10.0 mi Calm Calm - N/A   Mostly Cloudy
7:15 AM 53.2 °F 51.4 °F 94% 30.13 in 10.0 mi Calm Calm - N/A   Clear
7:35 AM 57.7 °F 54.5 °F 89% 30.13 in 10.0 mi Calm Calm - N/A   Clear
7:55 AM 60.8 °F 53.4 °F 77% 30.13 in 10.0 mi WSW 3.5 mph - N/A   Clear
8:15 AM 62.4 °F 53.2 °F 72% 30.13 in 10.0 mi WSW 3.5 mph - N/A   Scattered Clouds
8:35 AM 64.4 °F 53.4 °F 67% 30.14 in 10.0 mi West 3.5 mph - N/A   Scattered Clouds
8:55 AM 65.1 °F 53.4 °F 66% 30.13 in 10.0 mi Calm Calm - N/A   Clear
9:15 AM 67.1 °F 53.4 °F 61% 30.13 in 10.0 mi WSW 3.5 mph - N/A   Clear
9:35 AM 67.6 °F 54.0 °F 61% 30.13 in 10.0 mi Calm Calm - N/A   Clear
9:55 AM 69.4 °F 54.5 °F 59% 30.14 in 10.0 mi West 3.5 mph - N/A   Clear
10:15 AM 70.3 °F 54.5 °F 57% 30.13 in 10.0 mi West 4.6 mph - N/A   Clear
10:35 AM 70.7 °F 53.6 °F 55% 30.13 in 10.0 mi West 3.5 mph - N/A   Clear
10:55 AM 72.0 °F 52.5 °F 50% 30.13 in 10.0 mi NW 3.5 mph - N/A   Clear
11:15 AM 73.2 °F 51.3 °F 46% 30.13 in 10.0 mi SW 5.8 mph - N/A   Clear
11:35 AM 73.6 °F 51.1 °F 45% 30.12 in 10.0 mi SSW 4.6 mph - N/A   Scattered Clouds
11:55 AM 75.4 °F 47.3 °F 37% 30.12 in 10.0 mi SSW 6.9 mph - N/A   Mostly Cloudy
12:15 PM 74.3 °F 45.1 °F 35% 30.12 in 10.0 mi West 4.6 mph - N/A   Scattered Clouds
12:35 PM 75.2 °F 46.2 °F 36% 30.11 in 10.0 mi SW 6.9 mph - N/A   Scattered Clouds
12:55 PM 75.6 °F 46.9 °F 36% 30.11 in 10.0 mi WNW 3.5 mph - N/A   Scattered Clouds
1:15 PM 76.3 °F 47.1 °F 36% 30.10 in 10.0 mi West 3.5 mph - N/A   Clear
1:35 PM 76.3 °F 48.4 °F 37% 30.10 in 10.0 mi WNW 4.6 mph - N/A   Mostly Cloudy
1:55 PM 74.7 °F 50.5 °F 43% 30.10 in 10.0 mi West 10.4 mph - N/A   Overcast
2:15 PM 75.6 °F 50.9 °F 42% 30.10 in 10.0 mi WSW 5.8 mph - N/A   Scattered Clouds
2:35 PM 75.7 °F 49.5 °F 40% 30.10 in 10.0 mi WSW 3.5 mph - N/A   Scattered Clouds
2:55 PM 73.8 °F 50.2 °F 43% 30.10 in 10.0 mi NW 3.5 mph - N/A   Clear
3:15 PM 76.8 °F 50.0 °F 39% 30.09 in 10.0 mi Calm Calm - N/A   Clear
3:35 PM 77.2 °F 49.1 °F 37% 30.08 in 10.0 mi West 3.5 mph - N/A   Scattered Clouds
3:55 PM 77.5 °F 48.7 °F 36% 30.08 in 10.0 mi SSW 5.8 mph - N/A   Scattered Clouds
4:15 PM 77.4 °F 49.8 °F 38% 30.08 in 10.0 mi SSW 3.5 mph - N/A   Mostly Cloudy
4:35 PM 75.7 °F 50.0 °F 40% 30.08 in 10.0 mi SW 3.5 mph - N/A   Scattered Clouds
4:55 PM 76.6 °F 50.7 °F 40% 30.08 in 10.0 mi SSW 3.5 mph - N/A   Clear
5:15 PM 77.0 °F 51.4 °F 41% 30.08 in 10.0 mi SW 3.5 mph - N/A   Clear
5:35 PM 76.8 °F 51.8 °F 42% 30.08 in 10.0 mi West 4.6 mph - N/A   Clear
5:55 PM 76.3 °F 48.9 °F 38% 30.08 in 10.0 mi West 3.5 mph - N/A   Clear
6:15 PM 76.1 °F 50.4 °F 40% 30.08 in 10.0 mi WSW 4.6 mph - N/A   Clear
6:35 PM 75.6 °F 50.5 °F 41% 30.09 in 10.0 mi WSW 3.5 mph - N/A   Clear
6:55 PM 75.0 °F 52.3 °F 45% 30.09 in 10.0 mi Calm Calm - N/A   Scattered Clouds
7:15 PM 73.6 °F 54.9 °F 52% 30.09 in 10.0 mi South 3.5 mph - N/A   Clear
7:35 PM 72.1 °F 55.9 °F 57% 30.09 in 10.0 mi South 3.5 mph - N/A   Clear
7:55 PM 68.9 °F 57.2 °F 66% 30.10 in 10.0 mi Calm Calm - N/A   Clear
8:15 PM 65.8 °F 57.2 °F 74% 30.10 in 10.0 mi Calm Calm - N/A   Clear
8:35 PM 64.9 °F 57.2 °F 76% 30.10 in 10.0 mi Calm Calm - N/A   Clear
8:55 PM 63.7 °F 57.2 °F 79% 30.10 in 10.0 mi Calm Calm - N/A   Clear
9:15 PM 61.2 °F 57.2 °F 87% 30.11 in 10.0 mi Calm Calm - N/A   Clear
9:35 PM 60.3 °F 56.8 °F 88% 30.11 in 10.0 mi Calm Calm - N/A   Clear
9:55 PM 58.8 °F 55.2 °F 88% 30.12 in 10.0 mi Calm Calm - N/A   Clear
10:15 PM 58.8 °F 54.9 °F 87% 30.12 in 10.0 mi Calm Calm - N/A   Clear
10:35 PM 56.7 °F 53.8 °F 90% 30.12 in 10.0 mi Calm Calm - N/A   Clear
10:55 PM 56.5 °F 53.1 °F 88% 30.12 in 10.0 mi Calm Calm - N/A   Clear
11:15 PM 55.8 °F 52.9 °F 90% 30.13 in 10.0 mi Calm Calm - N/A   Clear
11:35 PM 55.4 °F 52.0 °F 88% 30.13 in 10.0 mi Calm Calm - N/A   Clear
11:55 PM 55.0 °F 51.3 °F 87% 30.13 in 10.0 mi Calm Calm - N/A   Clear